SCP
0 0 0 0 0 0 0 1 1 1 1 1 0 0 0 1 1 0 0 0 0 0 0 0 0 0 1 1 0 0 0 0 0 0 0 1 1 1 1 1 1 1 0
0 0 0 0 0 0 0 1 1 1 1 1 0 0 0 0 0 0 0 1 1 0 0 0 0 0 0 1 1 0 0 0 0 0 0 0 1 1 1 1 1 1 0
0 0 0 0 0 0 0 0 1 1 1 1 0 0 1 0 0 1 1 1 1 1 1 1 1 0 1 1 1 1 1 0 0 0 0 0 0 1 1 1 1 1 1
0 0 0 0 0 0 0 0 0 0 0 0 0 0 0 0 0 1 1 1 1 1 1 1 1 1 1 1 1 1 1 1 0 0 0 0 0 0 0 0 0 1 1
0 0 0 0 1 1 1 0 0 0 0 0 0 0 1 0 0 1 1 1 0 1 1 1 1 1 1 1 1 1 1 1 0 0 0 0 0 0 0 0 0 0 1
0 0 1 1 1 1 1 1 1 1 0 0 0 1 0 0 0 0 0 0 0 0 0 1 1 1 1 1 1 1 1 1 0 0 0 0 0 0 1 1 0 0 1
1 1 1 1 1 1 1 1 1 1 1 1 0 0 0 0 0 0 0 0 0 0 0 0 1 1 1 1 1 1 1 1 0 0 0 0 0 1 1 1 1 0 1
1 1 0 0 0 0 1 1 1 1 1 1 1 0 0 0 0 0 0 0 0 0 0 0 0 1 1 1 1 1 1 1 0 0 0 0 1 1 1 1 1 1 1
1 1 1 0 0 0 0 0 1 1 1 1 1 0 0 0 0 0 0 0 0 0 0 0 0 1 1 1 1 1 1 1 1 0 0 0 1 1 1 1 1 1 1
0 0 1 0 0 0 0 0 0 0 0 0 0 0 0 0 0 0 0 0 0 0 0 0 0 0 0 1 1 1 1 1 1 1 1 1 1 1 1 1 1 1 1
0 0 0 1 1 0 0 0 0 0 0 0 0 0 0 0 0 0 0 0 0 0 0 0 0 0 0 0 0 0 1 1 1 1 1 1 1 1 1 1 1 1 1
0 0 0 1 1 1 1 0 0 0 0 0 0 0 0 0 0 0 0 0 0 0 0 0 0 0 0 0 0 0 1 1 1 1 1 1 1 1 1 1 1 1 1
0 0 0 1 1 1 1 1 0 0 0 0 0 0 0 0 0 0 0 0 0 0 0 0 0 0 0 0 0 0 1 1 1 1 1 1 1 1 1 1 1 1 1
0 0 0 1 1 1 1 1 0 0 0 0 0 0 0 0 0 0 0 0 0 0 0 0 0 0 0 0 0 0 0 1 1 1 1 1 1 1 1 1 1 1 1
0 0 0 0 0 1 1 1 0 0 0 0 0 0 0 0 0 0 0 0 0 0 0 0 0 0 0 0 0 0 0 0 1 1 1 1 1 1 1 1 1 1 1
0 0 0 0 0 0 1 1 0 0 0 0 0 0 0 0 0 0 0 0 0 0 0 0 0 0 0 0 0 0 0 1 1 1 1 1 1 1 1 1 1 1 1
0 0 0 0 0 0 1 1 0 0 0 0 0 0 0 0 0 0 0 0 0 0 0 0 0 0 0 0 0 0 0 0 1 1 1 1 1 1 1 1 1 1 1
0 0 0 0 0 0 0 1 1 0 0 0 0 0 0 0 0 0 0 0 0 0 0 0 0 0 0 0 0 0 0 0 0 1 1 1 1 1 1 1 1 1 1
0 0 0 0 0 0 0 1 1 0 0 0 0 0 0 0 0 0 0 0 0 0 0 0 0 0 0 0 0 0 0 0 0 0 1 1 1 1 1 1 1 1 1
0 0 0 0 0 0 0 0 0 0 0 0 0 0 0 0 0 0 0 0 0 0 0 0 0 0 0 0 0 0 0 0 0 0 1 1 1 1 1 1 1 1 1
0 0 0 0 0 0 0 0 0 0 0 0 0 0 0 0 0 0 0 0 0 0 0 0 0 0 0 0 0 0 0 0 0 0 0 0 0 0 0 0 1 1 1
1 0 0 0 0 0 0 0 0 0 0 0 0 0 0 0 0 0 0 0 0 0 0 0 0 0 0 0 0 0 0 0 0 0 0 0 0 0 0 0 0 1 1
1 0 0 0 0 0 0 1 0 0 0 0 0 0 0 0 0 0 0 0 0 0 0 0 0 0 0 0 0 0 0 0 0 0 0 0 0 0 0 0 0 0 0
0 0 0 0 0 0 1 1 0 0 0 0 0 0 0 0 0 0 0 0 0 0 0 0 0 0 0 0 0 0 0 0 0 0 0 0 1 1 0 0 0 0 1
0 0 0 0 0 0 0 0 0 0 0 0 0 0 0 0 0 0 0 0 0 0 0 0 0 0 0 0 0 0 0 0 0 0 0 0 0 1 1 0 0 1 1
0 0 0 0 0 0 0 0 0 0 0 0 0 0 0 0 0 0 0 0 0 0 0 0 0 0 0 0 0 0 0 0 0 0 0 0 0 1 1 1 1 1 1
Wind_Speed
3 4 7 8 9 9 11 11 11 11 12 11 11 10 10 9 9 9 9 9 9 8 8 8 8 8 7 7 7 6 6 7 7 6 6 6 6 6 5 5 2 3 6
5 6 9 9 10 11 11 12 12 11 11 11 11 10 9 9 9 9 8 9 8 8 8 8 7 7 7 7 6 6 6 7 6 6 4 4 6 6 6 6 6 5 4
7 8 10 10 11 11 12 12 12 12 11 11 10 9 9 9 8 8 8 9 8 8 7 7 7 7 7 7 6 6 6 6 6 3 2 2 6 6 6 6 6 6 5
8 8 10 10 11 12 12 12 12 12 11 11 10 9 9 8 8 8 9 9 8 8 8 7 6 6 6 6 6 6 6 5 4 2 1 4 5 8 6 6 6 5 5
9 9 11 10 11 11 11 11 12 11 11 10 10 9 9 8 9 9 9 9 8 7 7 7 6 6 6 6 6 6 5 4 2 2 5 4 5 7 6 6 6 5 5
10 10 12 10 11 11 11 11 11 11 10 10 10 9 9 9 9 9 9 8 8 7 7 7 7 6 6 6 6 6 5 2 2 4 4 4 4 6 5 5 5 5 5
10 10 11 11 11 11 11 10 10 11 10 10 10 10 9 9 9 8 8 8 7 7 7 7 6 6 6 6 6 6 4 3 2 3 3 4 5 5 5 5 5 5 5
10 9 11 12 11 11 10 10 10 10 10 10 10 9 9 9 8 8 8 7 7 6 6 6 6 6 6 6 6 6 5 5 3 4 4 5 7 5 5 5 5 4 4
9 9 8 10 10 10 10 10 9 9 9 9 9 8 8 8 8 7 7 7 7 7 7 7 6 6 6 6 6 6 5 4 2 3 4 5 7 6 6 5 4 4 4
9 8 8 8 7 8 9 10 9 9 9 8 8 7 6 6 6 5 5 7 6 7 7 7 6 6 6 6 5 5 2 3 3 3 3 6 6 6 6 5 5 4 4
7 7 7 7 7 6 7 8 7 8 6 5 7 6 2 4 5 5 9 7 6 7 7 7 6 5 3 5 4 2 2 1 3 3 4 7 5 5 5 5 5 4 4
7 6 6 6 5 6 5 5 4 5 4 4 5 5 4 4 5 4 7 6 6 6 5 5 3 2 2 2 4 2 1 2 2 3 5 7 5 5 5 5 4 4 4
7 6 5 5 5 5 4 4 3 3 3 4 5 5 4 4 3 3 3 4 3 2 3 3 1 2 3 3 2 3 4 3 2 3 6 7 5 5 5 5 5 4 4
7 6 6 5 5 5 5 4 3 3 3 4 4 5 3 3 3 4 3 3 2 2 3 2 2 4 4 4 4 4 5 3 3 3 6 8 6 6 6 6 6 6 5
7 7 7 5 5 5 6 4 4 4 4 5 3 3 4 3 3 3 3 3 3 3 2 2 3 4 4 4 4 5 5 5 5 4 5 9 8 8 8 7 8 8 7
7 7 7 6 5 5 5 4 4 4 3 4 3 4 4 3 3 3 4 3 3 3 3 3 4 3 4 4 5 5 5 5 5 5 5 6 9 9 9 9 9 9 9
7 7 7 5 5 5 5 5 4 3 4 4 3 4 5 4 4 4 3 3 3 3 3 3 4 3 4 4 4 5 5 5 5 6 6 4 5 8 9 10 10 10 10
7 8 7 5 5 5 5 4 4 4 4 4 4 4 5 5 5 4 3 3 3 3 2 2 2 3 4 3 4 4 4 4 6 6 5 5 4 5 7 10 11 11 11
7 7 7 6 5 5 5 5 4 5 4 4 4 4 4 5 5 5 4 3 4 3 3 2 3 3 4 3 4 4 4 4 4 5 6 6 6 5 5 7 9 11 12
6 7 7 6 5 6 4 4 4 4 4 4 4 5 5 4 5 4 3 5 4 3 3 3 4 3 3 2 3 4 4 3 4 5 5 5 6 6 6 5 4 7 11
7 7 6 6 6 4 3 3 3 3 3 4 4 5 5 5 5 5 4 5 4 4 4 4 3 3 3 2 2 3 4 4 5 4 4 4 5 6 6 6 5 4 4
8 7 6 6 5 4 3 3 3 3 3 4 4 5 5 5 5 4 5 4 4 3 4 4 3 2 3 2 1 0 2 4 3 4 4 4 5 4 5 6 6 6 5
8 7 5 5 6 5 4 3 4 4 3 3 3 3 4 5 5 5 5 4 4 4 4 4 3 3 2 3 4 3 2 2 2 3 5 4 5 4 4 5 6 6 6
8 7 6 6 6 6 5 4 4 3 3 3 3 3 4 5 5 5 5 4 4 4 4 4 4 3 2 2 3 3 4 4 2 2 3 4 5 5 5 5 5 6 6
9 7 6 6 6 5 5 5 4 3 3 3 3 4 4 4 5 5 4 4 4 4 5 5 4 4 3 3 3 2 3 2 3 2 2 2 3 4 4 5 5 5 6
8 7 7 7 6 5 5 5 5 5 4 5 4 3 3 3 3 5 4 4 4 4 4 4 4 5 4 5 4 4 3 3 3 3 2 2 2 3 4 4 5 5 5
Wind_Direction
98 99 98 102 102 98 98 99 100 102 103 102 101 99 98 95 93 90 89 85 82 81 80 79 78 78 76 71 69 69 69 65 63 67 68 66 61 64 60 49 23 96 74
108 105 98 100 104 103 99 97 97 98 100 100 98 97 95 92 90 89 86 82 81 79 77 77 75 75 75 71 68 67 66 61 62 60 59 95 76 61 57 48 23 48 61
104 107 106 101 102 101 99 96 95 94 96 96 94 92 91 90 88 86 81 77 75 74 73 74 74 73 72 68 64 63 63 59 60 48 296 78 90 71 56 51 47 51 59
105 103 97 99 100 100 97 95 93 91 90 89 89 87 86 85 82 78 75 71 69 68 65 65 70 71 69 64 61 61 60 58 52 313 5 51 66 73 56 51 48 53 59
102 99 96 98 100 98 96 95 94 93 90 88 88 85 84 83 80 76 73 70 66 64 61 60 63 67 66 63 61 61 59 53 27 330 48 49 55 66 54 51 49 50 60
104 100 95 96 99 98 96 93 93 91 88 86 85 85 84 83 80 76 74 72 67 63 61 59 60 64 63 62 63 61 55 28 268 53 50 48 57 62 55 51 46 53 58
105 101 99 89 89 89 89 92 91 89 87 84 82 79 78 78 75 72 70 69 65 61 60 60 60 63 62 61 61 56 44 345 28 57 50 48 48 46 53 53 51 51 50
108 106 105 98 88 84 83 86 88 86 84 81 79 78 77 75 72 68 65 62 59 58 59 58 58 61 62 60 56 51 34 340 61 51 54 55 46 52 55 56 52 48 44
109 106 104 106 106 99 88 80 82 82 81 79 79 78 74 71 70 66 62 57 58 57 57 58 60 63 66 63 57 50 41 358 9 45 53 56 48 44 49 54 53 49 46
112 107 105 103 100 99 99 85 81 81 80 79 79 78 82 96 92 83 79 62 55 58 58 59 62 64 68 65 58 52 18 280 38 46 47 57 45 41 43 46 47 46 49
114 112 108 103 97 95 91 95 100 98 91 110 103 101 128 90 93 98 62 59 59 62 62 61 63 66 80 103 77 45 274 21 52 39 47 43 35 43 44 42 40 41 45
122 116 109 105 103 98 91 96 88 89 91 75 76 82 73 73 69 68 93 74 68 71 81 68 71 153 233 108 123 202 73 62 54 53 58 39 32 41 42 40 37 37 40
120 113 109 108 101 100 100 88 86 87 85 73 66 79 72 75 89 77 84 104 96 91 73 92 151 73 67 67 49 64 48 48 55 52 59 44 35 42 43 44 42 42 40
115 111 106 104 105 102 97 93 89 84 77 71 62 61 69 64 59 68 66 57 49 55 51 46 52 73 62 68 66 67 67 49 56 59 64 53 45 46 44 43 47 46 45
119 115 107 103 99 101 97 92 86 72 60 74 57 53 66 71 67 70 71 61 51 49 57 57 60 65 62 60 54 57 60 61 60 62 73 67 54 51 49 48 48 44 42
122 118 119 110 98 100 100 94 81 77 75 63 61 57 66 65 62 59 65 54 47 44 39 44 67 68 66 62 57 57 55 58 60 62 63 79 69 55 49 49 48 46 41
128 126 121 110 104 98 94 87 79 73 71 67 63 58 66 59 57 60 58 62 53 50 52 45 63 68 76 82 76 63 59 52 62 63 60 53 78 75 56 48 46 47 44
139 133 125 119 108 103 99 100 90 78 75 74 68 59 60 61 59 55 53 55 53 51 53 61 58 72 80 75 74 66 67 59 54 50 56 57 51 60 72 58 51 47 43
145 137 132 122 116 109 106 108 93 87 78 72 67 59 55 58 59 64 47 40 50 49 49 57 61 62 73 73 82 75 62 58 54 49 54 52 57 54 61 77 64 51 44
147 145 137 131 135 127 128 117 103 90 84 75 69 61 55 58 58 60 60 49 47 52 48 55 65 65 68 75 81 80 74 74 61 48 44 53 51 52 51 55 69 71 55
151 150 145 148 144 143 135 132 121 107 97 84 71 64 62 60 57 59 52 53 43 52 44 49 60 79 68 62 114 113 102 79 68 65 46 48 59 54 56 55 49 44 65
159 157 157 156 152 144 130 126 120 106 95 81 75 68 58 55 52 54 57 63 59 61 55 48 46 46 66 25 347 161 133 125 83 67 62 53 52 55 54 54 51 48 38
167 164 164 162 155 149 145 137 136 129 129 118 99 79 57 55 56 52 54 57 55 57 57 49 46 41 49 49 20 350 351 50 99 90 64 58 54 47 52 50 45 41 38
171 167 169 167 159 157 162 157 150 143 128 107 96 96 89 70 66 57 58 59 59 59 62 54 50 47 35 48 57 27 24 20 338 107 99 73 62 52 46 41 39 38 35
171 170 170 165 160 160 165 154 164 146 127 119 119 113 97 78 67 65 60 61 63 61 59 55 51 42 46 36 41 45 47 36 356 4 73 76 77 60 50 44 37 34 32
169 168 169 166 159 163 169 167 162 144 141 134 132 121 110 94 79 73 66 66 65 62 62 58 62 59 53 51 44 42 32 25 17 20 37 62 69 68 58 49 35 31 27